Location: Battery Park City
(40.7115°N, 74.0163°W)
Time: 02:52:52
(UTC+00:00)

COSMOS 2428 - Pass Details

Date: 08 December 2019
Orbit: 844 x 858 km, 70.9° (Epoch: 19 January)

Event Time Altitude Azimuth Distance (km) Brightness Sun altitude
Rises 22:05:59 0° 211° (SSW) 3,387 6.8 -7.2°
Reaches altitude 10° 22:08:27 10° 214° (SW) 2,457 6.1 -7.6°
Maximum altitude 22:14:02 65° 296° (WNW) 930 3.1 -8.6°
Drops below altitude 10° 22:19:42 10° 18° (NNE) 2,480 4.8 -9.6°
Enters shadow 22:22:09 - 21° (NNE) 3,405 5.4 -10.0°
